Flag for Germany Weather past 2 weeks in Nordhorn, Lower Saxony, Germany

Now
54 °F

Cool.


Feels Like: 54 °F
Forecast: 51 / 57 °F
Wind: 1 mph from South

Location: Rheine-Bentlage

Current Time: May 25, 2015 at 12:07:58 AM

Latest Report: May 24, 2015 at 10:00 PM


Visibility: N/A

Pressure: 30.03 "Hg

Humidity: 69%

Dew point: 44 °F

Location of NordhornLocation

Historic Weather in Nordhorn — Graph

°F

Nordhorn temperature yesterday

Maximum temperature yesterday: 66 °F (at 6:00 PM)
Minimum temperature yesterday: 38 °F (at 6:00 AM)
Average temperature yesterday: 53 °F

Past Weeks' High & Low Weather Summary

 TemperatureHumidityPressure
High77 °F (May 11, 6:00 PM)96% (May 16, 6:00 AM)30.35 "Hg (May 16, 6:00 AM)
Low37 °F (May 16, 4:00 AM)32% (May 24, 7:00 PM)29.61 "Hg (May 18, 8:00 PM)
Average53 °F69%30.08 "Hg
* Reported May 9 10:00 PM — May 24 10:00 PM, Nordhorn, Weather by CustomWeather, © 2015

Note: Actual official high and low records may vary slightly from our data, if they occured in-between our weather recording intervals... More about our weather records

Advertising

Nordhorn weather history for previous 24 hours

 ConditionsComfort  
Time TempWeatherWind HumidityBarometerVisibility
10:00 PM
Sun, May 24
54 °FCool.1 mph69%30.03 "HgN/A
9:00 PM62 °FRefreshingly cool.1 mph48%30.03 "HgN/A
7:00 PM66 °FMild.3 mph32%30.03 "HgN/A
6:00 PM66 °FMild.2 mph37%30.05 "HgN/A
4:00 PM65 °FMild.2 mph43%30.08 "HgN/A
3:00 PM64 °FMild.N/A44%30.09 "HgN/A
1:00 PM60 °FRefreshingly cool.2 mph53%30.12 "HgN/A
12:00 PM58 °FRefreshingly cool.2 mph59%30.14 "HgN/A
10:00 AM53 °FCool.N/A66%30.15 "HgN/A
9:00 AM51 °FCool.2 mph68%30.16 "HgN/A
8:00 AMN/AScattered clouds.60 mphN/A29.99 "Hg2 mi
7:00 AM41 °FQuite cool.1 mph95%30.18 "HgN/A
6:00 AM38 °FChilly.No wind96%30.18 "HgN/A
4:00 AM40 °FChilly.No wind94%30.19 "HgN/A
3:00 AM42 °FQuite cool.No wind92%30.20 "HgN/A
2:00 AM44 °FQuite cool.1 mph85%30.20 "HgN/A
1:00 AM46 °FCool.2 mph78%30.21 "HgN/A
12:00 AM48 °FCool.2 mph74%30.21 "HgN/A
Weather by CustomWeather, © 2015

See weather overviewHow to use our weather pages